Weather in Kalush

Ukraine / Ivano-Frankovsk District     49°01′34″N   24°22′06″E
temp.,
°C
wind,
m/s
gust,
m/s
humid.,
%
clouds,
%
prec.,
mm/h
press.,
hPa
HPBL,
m
23 september, thu
thu2300:00+6wnw4788100 0.2 1021310
03:00+6wnw5993100 0.5 1022890
06:00+6wnw51085100 0.2 1021920
09:00+7wsw378798 0.3 1021420
12:00+10wnw5871100 0.1 1019938
15:00+12w596378 0.2 10181308
18:00+12w596397 0.0 1016812
21:00+10sw4116699 0.0 1015397
24 september, fri
fri2400:00+12sw91653100 0.0 1012652
03:00+12sw112060100 0.0 1008954
06:00+12wsw122261100 0.0 1006997
09:00+12wsw101770100 0.7 10071113
12:00+12w91569100 0.1 10091299
15:00+14wnw81562100 0.4 10091925
18:00+12wnw8146396 0.2 10101454
21:00+10wnw71462100 0.2 1013956
25 september, sat
sat2500:00+10wnw61360100 0.0 1015678
03:00+9w5125843 0.0 1015378
06:00+9w5117077 0.0 1016337
09:00+13w51169100 0.0 1017679
12:00+16w7116189 0.0 10181139
15:00+17w6115954 0.0 10171265
18:00+17w510607 0.0 1018540
21:00+12sw377290 0.0 1020105
26 september, sun
sun2600:00+14sw496495 0.0 1020191
03:00+14wsw386985 0.0 1020140
06:00+15w2367100 0.0 102174
09:00+15nnw247036 0.0 1022196
12:00+19nnw33615 0.0 1022659
15:00+21nnw33592 0.0 1021937
18:00+19nne24721 0.0 1020203
21:00+13ese119049 0.0 102211
27 september, mon
mon2700:00+14e2484100 0.0 1022135
03:00+13ese368199 0.0 1021261
06:00+13ese377678 0.0 1021270
09:00+12ese477440 0.0 1021334
12:00+16ese576197 0.0 1021795
15:00+18ese5656100 0.0 10201115
18:00+17e4763100 0.0 1019370
21:00+12ese310765 0.0 1020230